Wind_Speed
20 21 22 23 24 25 26 26 27 26 26 26 27 28 27 28 28 29 30 32 33 34 35 37 38 40 42 44 46 48 50 51 52 53 53 54 53 52 51 48 44 41 38 36
19 20 21 23 23 24 24 25 25 25 25 26 26 27 27 27 29 30 30 31 32 34 35 37 39 40 41 42 44 46 48 51 52 53 54 55 55 54 54 52 50 45 42 38
18 19 20 21 22 23 23 24 24 24 24 24 25 25 26 26 28 28 29 29 31 32 33 34 35 36 38 40 42 44 45 47 49 51 52 53 54 55 54 53 51 48 46 42
17 18 19 20 20 20 21 21 22 22 22 22 23 25 23 25 25 26 27 27 29 30 30 30 31 32 34 36 37 38 40 42 44 46 47 48 50 51 51 50 50 49 47 44
15 15 16 16 17 17 18 18 18 19 19 20 20 21 20 21 22 23 24 26 26 27 27 27 28 28 28 27 27 28 30 32 34 37 39 40 42 45 46 46 47 47 46 44
12 12 12 13 14 15 15 16 16 17 17 18 17 17 17 18 19 20 22 23 23 23 24 23 23 22 21 20 20 20 22 23 25 28 30 33 35 38 40 42 43 44 44 43
8 8 9 10 11 12 13 14 14 14 14 14 14 15 16 15 16 16 18 19 19 19 20 20 19 18 16 15 15 15 16 16 16 18 21 25 28 32 35 37 39 40 41 42
6 7 8 9 10 11 11 12 12 12 12 12 13 13 13 13 14 15 16 17 17 19 20 20 18 16 14 14 13 13 12 11 11 10 12 17 20 24 28 31 34 35 37 38
6 7 8 9 10 11 12 11 12 11 11 11 11 12 12 12 14 15 17 17 18 19 19 18 16 15 13 14 13 12 11 9 8 7 6 8 11 14 19 23 26 28 30 32
8 9 9 10 11 12 13 12 12 12 11 11 12 12 13 14 15 16 16 16 17 17 18 17 16 16 15 15 14 14 13 12 10 7 5 3 4 8 12 15 19 22 24 26
11 11 11 12 13 14 14 14 14 13 12 12 12 12 13 14 14 15 15 16 16 16 17 18 18 18 18 17 17 17 15 15 14 11 7 5 1 4 7 10 14 17 19 22
12 13 14 14 15 15 15 15 15 15 14 13 13 13 14 14 14 14 15 15 15 16 17 18 19 19 20 20 20 20 18 18 16 14 12 9 6 2 1 5 8 12 15 18
13 14 14 15 16 16 16 16 16 15 15 15 14 14 15 14 14 14 14 15 15 16 17 18 20 21 20 21 21 21 21 20 18 16 14 12 9 6 3 2 4 6 9 12
13 14 14 15 16 16 16 17 17 17 17 17 16 16 16 15 14 14 15 15 16 16 17 18 19 20 21 20 21 21 21 21 20 19 17 15 12 9 7 5 3 3 5 7
13 13 13 14 15 16 16 17 17 18 18 18 17 17 17 16 15 15 15 15 15 16 17 17 18 19 20 20 20 21 21 21 21 20 19 17 15 12 10 8 6 5 4 5
13 13 13 13 14 15 16 17 18 18 18 18 18 18 17 16 15 15 14 15 15 16 17 17 18 18 19 20 20 21 21 22 22 22 21 19 18 16 14 12 11 10 8 7
11 12 12 13 14 15 16 17 18 19 19 18 18 17 16 16 15 15 14 14 15 16 17 17 18 18 18 19 20 20 20 21 21 21 21 20 19 18 16 15 14 13 12 11
9 10 11 11 13 13 15 16 17 19 19 19 17 16 16 16 15 14 13 13 13 14 16 17 17 17 18 18 19 19 20 21 21 21 21 20 20 19 17 16 15 15 15 14
6 7 8 10 11 12 13 15 16 18 19 19 18 16 15 15 14 13 13 13 13 14 15 16 16 17 17 17 18 19 19 20 21 21 20 20 19 19 18 17 16 16 16 17
6 7 7 8 9 11 12 14 15 16 18 18 17 16 15 14 13 12 12 11 12 13 14 15 15 16 16 17 17 18 19 19 20 20 20 20 19 19 18 18 17 17 17 18
8 8 8 9 9 10 11 12 14 15 16 17 17 16 15 14 12 12 11 10 10 12 13 14 15 15 16 16 16 17 18 19 19 19 19 19 19 19 19 19 19 19 19 20
11 10 10 10 10 10 11 12 13 13 15 16 16 16 15 14 13 11 10 9 9 10 11 12 13 14 15 16 16 17 18 18 19 19 19 19 20 20 20 20 20 20 20 21
13 13 12 12 12 12 11 11 12 13 13 14 14 15 15 14 13 12 10 9 8 8 9 11 12 13 14 15 16 17 18 18 19 19 19 20 21 21 22 22 21 21 21 22
15 15 14 14 13 13 12 12 12 12 12 13 13 14 14 14 14 12 10 9 8 8 8 9 10 11 12 13 14 16 17 18 19 19 19 20 21 22 22 22 22 22 22 23
17 16 16 15 14 14 13 12 12 12 12 12 12 12 12 12 13 12 11 9 8 7 7 8 9 9 10 11 13 14 16 17 18 19 20 20 21 22 22 22 23 23 23 23
20 19 18 17 16 15 14 14 13 12 12 11 11 10 10 11 11 11 11 10 8 8 7 7 7 8 8 9 10 12 13 15 17 18 20 20 21 22 22 22 23 23 23 23
Wind_Direction
265 272 277 282 285 287 290 291 291 292 291 289 289 289 289 289 289 287 286 286 285 284 283 281 279 277 275 272 269 266 263 260 259 258 256 255 253 252 252 252 251 249 247 247
270 278 283 287 290 291 291 290 290 289 289 289 289 290 290 290 290 290 290 289 289 288 287 286 284 281 279 276 273 270 266 263 261 259 256 255 255 253 251 250 251 250 249 249
278 285 289 291 292 292 291 290 290 291 290 289 291 291 292 292 292 293 294 293 292 291 290 289 287 286 284 281 278 275 271 267 264 261 258 256 254 252 251 251 250 251 251 252
286 290 293 294 294 294 292 291 291 291 291 292 295 296 297 298 299 300 302 302 303 303 300 296 293 291 289 287 284 279 274 270 266 262 260 257 254 252 251 251 250 251 252 254
295 297 298 298 298 297 296 296 296 296 296 298 299 300 305 305 306 309 312 313 312 312 310 307 304 301 298 296 292 287 281 276 269 263 259 256 253 250 249 248 249 249 250 252
304 305 306 306 305 305 305 305 304 303 303 304 305 307 311 312 315 317 319 320 319 319 320 320 318 314 310 305 302 296 290 284 275 264 257 253 249 245 243 244 246 247 248 250
316 321 323 322 320 319 318 318 317 317 315 313 313 317 321 324 326 328 330 329 330 332 334 333 334 333 330 325 320 313 304 299 287 270 258 252 247 242 239 239 240 241 242 244
350 349 348 347 345 341 338 336 335 333 329 328 329 333 337 338 339 340 340 339 340 342 341 340 342 347 348 349 345 339 331 319 310 290 266 251 244 240 238 237 237 237 238 240
19 15 10 6 4 2 359 357 354 351 347 346 347 346 347 349 349 350 353 354 353 353 352 353 355 358 1 4 1 358 4 354 339 325 293 258 241 236 232 233 234 233 235 237
48 35 25 21 19 18 16 16 14 10 6 2 355 355 357 356 357 359 3 5 6 9 9 13 15 17 22 18 17 19 24 25 23 15 2 312 251 232 227 226 227 227 229 232
55 46 43 39 35 32 30 29 26 20 15 10 7 6 3 4 7 9 12 15 18 21 23 29 33 36 35 34 33 34 34 35 36 37 34 22 351 238 235 232 231 230 230 232
59 55 53 50 45 40 36 32 28 24 20 16 12 13 12 16 18 20 22 27 31 33 36 40 42 44 45 43 40 38 38 36 35 37 36 33 33 34 225 230 234 235 236 238
62 57 54 51 46 41 37 33 29 25 21 17 16 17 17 20 23 26 31 37 40 42 45 46 46 47 46 45 44 42 41 39 38 38 38 36 37 35 21 310 264 254 249 247
61 58 55 50 46 41 38 32 27 23 20 18 20 20 22 24 29 34 39 42 43 46 47 47 46 45 45 44 44 42 41 40 39 38 37 37 37 37 34 23 353 304 274 264
62 58 54 50 45 40 35 31 26 24 22 22 24 26 28 32 36 40 43 45 47 48 48 45 44 43 43 43 43 42 40 39 38 38 38 38 38 37 36 34 26 12 344 310
61 57 52 49 44 39 35 32 28 26 25 26 27 28 31 37 40 42 46 47 48 47 46 43 42 41 41 42 42 42 42 41 40 39 40 39 40 41 42 41 35 28 16 359
57 54 49 45 41 37 34 30 28 27 26 25 26 29 35 38 39 43 45 45 44 43 39 38 39 41 42 42 42 42 40 39 39 39 39 41 43 44 43 41 37 30 20 9
48 46 43 39 35 34 29 28 26 25 25 25 27 30 34 35 37 39 42 40 37 36 35 35 37 39 40 40 40 40 40 40 40 41 42 43 43 42 39 36 33 28 21 13
23 25 25 25 25 24 22 22 22 22 23 23 24 27 30 31 33 35 36 35 35 35 34 35 36 38 39 38 38 38 38 38 39 40 40 40 39 37 35 33 30 25 19 13
338 350 358 3 6 9 12 13 15 16 20 19 20 22 23 24 27 29 30 34 36 36 34 34 35 36 36 36 36 36 35 35 35 35 35 35 35 32 30 27 24 20 14 9
305 316 327 337 344 351 355 360 4 8 11 12 15 17 18 20 21 22 25 29 31 31 31 31 33 34 35 35 35 34 33 33 32 31 31 31 29 27 26 24 20 17 13 10
292 300 309 317 324 332 336 342 350 356 360 5 8 12 14 16 16 18 20 21 21 24 26 28 31 34 35 35 35 33 32 31 30 29 28 27 26 25 24 21 19 17 15 12
282 289 295 302 309 315 321 327 334 340 347 354 359 4 8 10 11 12 15 16 15 16 19 23 28 32 33 34 34 33 32 31 30 29 28 27 26 25 24 22 20 19 18 17
274 279 285 291 297 302 307 313 318 325 333 340 347 352 357 3 6 5 5 7 7 6 9 15 21 26 29 30 32 32 31 31 30 29 28 27 26 26 25 24 23 22 22 22
269 271 276 281 286 290 294 299 304 310 317 326 334 341 348 354 359 2 3 358 359 359 358 4 12 18 23 26 29 29 30 30 29 28 28 27 26 27 27 26 25 25 26 26
265 266 269 273 277 281 285 288 292 297 302 309 316 325 334 343 350 357 360 359 354 352 352 353 0 9 15 19 23 24 25 26 26 26 26 26 26 26 27 28 28 29 29 30
Height
5911 5911 5909 5908 5907 5905 5903 5901 5898 5896 5893 5890 5888 5885 5883 5880 5878 5875 5872 5870 5867 5864 5861 5859 5857 5854 5852 5850 5849 5848 5847 5847 5847 5848 5849 5850 5851 5853 5855 5857 5860 5862 5864 5866
5908 5907 5905 5903 5902 5900 5898 5895 5892 5890 5888 5885 5882 5880 5877 5874 5871 5868 5865 5862 5859 5856 5853 5849 5846 5843 5841 5838 5836 5834 5833 5833 5833 5834 5835 5836 5838 5841 5843 5846 5849 5852 5855 5857
5904 5904 5901 5899 5897 5895 5892 5890 5887 5885 5882 5880 5877 5875 5872 5868 5865 5862 5858 5855 5852 5848 5844 5840 5836 5832 5829 5826 5823 5820 5819 5818 5818 5819 5820 5822 5824 5827 5830 5834 5838 5841 5845 5848
5901 5899 5897 5895 5892 5890 5887 5885 5883 5880 5878 5875 5873 5869 5867 5862 5859 5855 5852 5848 5844 5839 5835 5831 5827 5823 5819 5814 5810 5807 5805 5804 5803 5804 5806 5808 5811 5815 5818 5822 5826 5830 5834 5838
5897 5895 5893 5891 5888 5886 5883 5881 5879 5876 5874 5871 5868 5865 5862 5858 5854 5850 5846 5842 5837 5833 5828 5823 5818 5814 5809 5805 5800 5797 5794 5792 5791 5791 5793 5795 5798 5802 5806 5811 5815 5820 5824 5829
5894 5892 5890 5887 5885 5882 5880 5878 5875 5872 5870 5868 5865 5862 5859 5854 5851 5847 5842 5838 5833 5827 5822 5817 5812 5807 5802 5798 5794 5790 5786 5784 5782 5781 5782 5784 5787 5791 5796 5800 5805 5809 5814 5819
5892 5890 5888 5885 5883 5880 5878 5876 5873 5870 5867 5865 5861 5858 5856 5852 5848 5844 5840 5835 5829 5824 5819 5813 5808 5802 5797 5793 5789 5786 5782 5779 5776 5775 5775 5777 5779 5783 5786 5791 5795 5799 5804 5809
5891 5889 5887 5884 5882 5879 5876 5874 5872 5869 5866 5862 5859 5856 5854 5849 5846 5842 5837 5832 5827 5821 5816 5811 5805 5800 5795 5791 5787 5783 5779 5776 5774 5772 5771 5772 5774 5776 5779 5783 5787 5791 5795 5800
5890 5889 5886 5884 5881 5878 5875 5872 5870 5868 5864 5862 5858 5855 5852 5848 5844 5840 5835 5830 5825 5820 5815 5809 5804 5800 5795 5791 5787 5783 5779 5776 5773 5772 5770 5770 5771 5772 5774 5777 5781 5784 5788 5792
5890 5889 5887 5884 5882 5879 5876 5873 5870 5867 5864 5861 5859 5855 5852 5847 5843 5839 5834 5829 5825 5820 5815 5810 5805 5800 5796 5793 5788 5785 5781 5778 5774 5773 5771 5770 5770 5770 5772 5774 5776 5779 5782 5786
5891 5890 5888 5885 5882 5879 5877 5874 5871 5868 5865 5862 5858 5857 5851 5847 5843 5839 5834 5830 5826 5822 5817 5812 5807 5803 5799 5795 5791 5787 5784 5781 5778 5775 5773 5771 5770 5770 5771 5772 5774 5776 5778 5781
5893 5891 5889 5887 5884 5881 5878 5875 5872 5869 5866 5862 5859 5859 5851 5847 5843 5839 5835 5831 5828 5824 5820 5815 5811 5807 5803 5799 5795 5791 5788 5784 5782 5779 5776 5774 5773 5772 5772 5772 5773 5774 5775 5777
5894 5893 5891 5889 5888 5884 5880 5877 5874 5870 5867 5863 5860 5859 5852 5848 5844 5841 5837 5833 5830 5826 5823 5819 5815 5811 5807 5804 5800 5796 5792 5789 5786 5783 5780 5777 5776 5775 5774 5773 5773 5773 5773 5774
5896 5895 5894 5892 5888 5885 5882 5879 5875 5872 5868 5864 5861 5857 5853 5849 5846 5842 5839 5836 5833 5830 5826 5823 5819 5815 5812 5808 5804 5801 5797 5793 5790 5787 5783 5781 5778 5777 5775 5774 5774 5773 5772 5772
5898 5897 5894 5892 5890 5887 5884 5881 5877 5874 5870 5866 5862 5858 5855 5851 5847 5844 5842 5839 5836 5833 5830 5826 5823 5819 5816 5812 5808 5805 5801 5797 5794 5790 5787 5784 5781 5779 5777 5775 5774 5773 5772 5770
5900 5899 5897 5895 5892 5889 5886 5883 5879 5875 5871 5868 5864 5861 5857 5853 5850 5847 5844 5842 5839 5836 5833 5830 5826 5823 5819 5816 5812 5808 5805 5801 5798 5794 5790 5787 5784 5781 5779 5777 5775 5773 5771 5769
5902 5900 5899 5897 5894 5891 5888 5885 5881 5878 5874 5870 5866 5864 5859 5856 5853 5850 5847 5844 5842 5839 5836 5833 5829 5826 5823 5819 5816 5812 5809 5805 5801 5797 5794 5790 5787 5784 5781 5779 5776 5773 5771 5768
5903 5901 5900 5898 5896 5893 5893 5887 5883 5880 5876 5872 5868 5865 5862 5858 5855 5852 5849 5847 5844 5841 5838 5835 5832 5829 5826 5823 5819 5816 5812 5809 5805 5801 5797 5794 5790 5787 5784 5781 5778 5775 5771 5768
5903 5902 5901 5899 5897 5895 5892 5889 5885 5882 5878 5874 5871 5867 5864 5860 5858 5855 5852 5849 5847 5844 5841 5838 5835 5832 5829 5826 5822 5819 5816 5812 5808 5805 5801 5797 5793 5790 5786 5783 5779 5776 5772 5768
5903 5902 5901 5899 5897 5895 5894 5890 5886 5884 5880 5877 5873 5869 5866 5863 5860 5858 5854 5851 5849 5846 5843 5841 5838 5835 5832 5828 5825 5822 5819 5815 5811 5808 5804 5800 5796 5793 5789 5785 5781 5777 5772 5768
5902 5901 5900 5898 5897 5895 5893 5890 5888 5886 5884 5878 5874 5871 5868 5864 5862 5859 5856 5853 5851 5849 5846 5843 5840 5837 5834 5831 5828 5825 5821 5818 5814 5811 5807 5803 5799 5795 5791 5786 5782 5778 5773 5768
5900 5899 5898 5897 5896 5896 5892 5889 5888 5886 5882 5879 5876 5872 5869 5866 5863 5860 5857 5855 5853 5851 5848 5845 5843 5840 5837 5834 5831 5828 5824 5821 5817 5813 5809 5806 5801 5797 5793 5788 5784 5779 5774 5769
5897 5897 5896 5896 5896 5893 5890 5889 5887 5885 5882 5879 5877 5874 5870 5867 5864 5861 5858 5856 5854 5852 5850 5847 5844 5842 5839 5836 5833 5830 5827 5823 5820 5816 5812 5808 5804 5799 5795 5790 5785 5780 5775 5770
5893 5892 5892 5891 5891 5890 5888 5887 5885 5883 5881 5879 5877 5874 5871 5868 5865 5862 5859 5857 5854 5852 5850 5848 5846 5843 5841 5838 5835 5833 5829 5826 5822 5819 5815 5811 5806 5802 5797 5792 5788 5783 5778 5772
5888 5888 5888 5888 5887 5886 5885 5884 5883 5881 5879 5878 5876 5873 5871 5868 5865 5862 5859 5857 5855 5853 5851 5849 5847 5845 5842 5840 5837 5835 5832 5829 5825 5822 5818 5814 5809 5805 5800 5795 5791 5786 5781 5775
5883 5883 5883 5884 5884 5883 5882 5881 5880 5879 5877 5876 5874 5872 5870 5868 5865 5862 5860 5857 5855 5853 5851 5849 5847 5845 5843 5841 5839 5836 5834 5831 5828 5824 5820 5817 5812 5808 5803 5799 5794 5789 5784 5779